铱星星座 140星 (IRIDIUM 140)

导读

IRIDIUM 140是美国于2018年3月30日发射的铱星系统下一代(Iridium-NEXT)通信卫星,隶属于第二代铱星全球卫星通信星座。作为低轨通信卫星,运行在约780公里近极轨道,属于系统组网卫星,为全球提供语音通信、数据传输服务,弥补地面通信盲区覆盖,设计寿命超10年,支持跨卫星星际链路。

Basic Information
目录编号:
43252
目录名称:
IRIDIUM 140
国际标识:
2018-030D
轨道中心:
EARTH
卫星名称:
铱星星座 140星
卫星全名:
铱星星座 140星 (IRIDIUM 140)
卫星状态:
在轨 (已飞行2997 天)
发射日期:
2018-03-30 UTC
国别 :
美国 (US)
星等 :
--
Orbit Information
数据来源 国际轨道数据 AOE轨道数据
星历时间 2026-06-13T03:26:07+0800
6小时前
查看轨道信息
2026-06-11T06:00:00+0800
2天前
查看轨道信息
半长轴 7155.805km 7155.807km
偏心率 0.0002122 0.0001945
轨道倾角 86.395° 86.395°
近地点辐角 93.030° 92.838°
升交点赤经 292.263° 293.054°
平近点角 267.114° 218.848°
近地点 776.149km 776.278km
远地点 779.187km 779.062km
周期 100.403分钟 100.403分钟
每日圈数 14.342176 14.342169
Detailed Information
平衡模式:
三轴稳定
覆盖范围:
全球
运营商:
铱星通信公司
运营商所在国:
美国
制造商(研发单位):
阿莱尼亚宇航公司
制造商所在国:
意大利
使用方式:
暂无
Satellite Introduction
铱星(Iridium)是由共66个运作中的通信卫星组成的卫星通信系统。这个系统原本规划77个通信卫星,所以用原子序数为77的铱元素来命名。铱卫星允许人们使用手持型电子设备进行全球性的语音及数据通讯。该卫星仍在工作。
2D Orbit Map
3D Orbit Map
Orbit Altitude Analysis Chart
Orbit Inclination Analysis Chart
Orbit Comprehensive Analysis Chart
View Comprehensive Chart